Location: Allentsteig
(48.6833°N, 15.3167°E)
Time: 15:06:50
(UTC+00:00)

CZ-4C R/B - Pass Details

Date: 18 September 2020
Orbit: 626 x 1375 km, 63.4° (Epoch: 23 October)

Event Time Altitude Azimuth Distance (km) Brightness Sun altitude
Exits shadow 23:01:59 28° 20° (NNE) 1,659 4.1 -39.9°
Drops below altitude 10° 23:05:14 10° 37° (NE) 2,742 5.4 -39.8°
Sets 23:08:13 0° 43° (NE) 3,825 6.2 -39.8°
